Regional Weather Roundup
Issued by NWS

Home | Current Version | Previous Version | Text Only | Print | Product List | Glossary Off
Versions: 1 2 3 4 5 6 7 8 9 10 11 12 13 14 15 16 17 18 19 20 21 22 23 24 25 26 27 28 29 30 31 32 33 34 35 36 37 38 39 40 41 42 43 44 45 46 47 48 49 50

000
ASUS43 KOAX 191702
RWRNE

WEATHER ROUNDUP FOR NEBRASKA
NATIONAL WEATHER SERVICE OMAHA NE
1200 PM CDT SUN APR 19 2015

NOTES: SATELLITE DATA IS BEING USED TO AUGMENT CLOUD COVER ABOVE
       12000 FEET.
       "FAIR" INDICATES FEW OR NO CLOUDS BELOW 12,000 FEET WITH NO
       SIGNIFICANT WEATHER AND/OR OBSTRUCTIONS TO VISIBILITY.

  * THESE STATIONS DO NOT REPORT WEATHER SUCH AS RAIN...SNOW OR FOG.

NEZ001>004-019>022-054>056-191800-
NEBRASKA PANHANDLE

CITY           SKY/WX    TMP DP  RH WIND       PRES   REMARKS
SCOTTSBLUFF    PTSUNNY   48  24  39 N28G36    30.10F
ALLIANCE       MOSUNNY   46  22  38 NW30G40   30.05F
CHADRON        MOSUNNY   47  25  42 NW20G35   30.09F
SIDNEY         CLOUDY    43  25  49 N28G33    30.09R
$$

NEZ057>060-069>072-079>082-191800-
SOUTHWEST NEBRASKA

CITY           SKY/WX    TMP DP  RH WIND       PRES   REMARKS
NORTH PLATTE   PTSUNNY   49  26  41 N30G43    29.99R
IMPERIAL       PTSUNNY   48  27  44 N30G37    30.03S
LEXINGTON      CLOUDY    47  33  57 N22G38    29.97R
MCCOOK         CLOUDY    50  32  50 N26G33    29.99R
$$

NEZ005>010-023>029-035>040-094-191800-
NORTH CENTRAL NEBRASKA

CITY           SKY/WX    TMP DP  RH WIND       PRES   REMARKS
VALENTINE      MOSUNNY   50  28  42 NW26G46   29.97S
AINSWORTH      PTSUNNY   50  30  47 N30G38    29.95S
BROKEN BOW     CLOUDY    48  32  53 N33G44    29.93R
ORD            CLOUDY    48  30  49 N26G41    29.90R
$$

NEZ041-046>049-061>064-073>077-083>087-191800-
SOUTH CENTRAL NEBRASKA

CITY           SKY/WX    TMP DP  RH WIND       PRES   REMARKS
GRAND ISLAND   CLOUDY    50  35  56 N29G36    29.89R
HASTINGS       CLOUDY    50  37  61 N28G40    29.89R
KEARNEY *        N/A    N/A N/A N/A MISG        N/A
YORK           LGT RAIN  48  43  81 N16G24    29.83S
$$

NEZ011>018-030>034-042>045-191800-
NORTHEAST NEBRASKA

CITY           SKY/WX    TMP DP  RH WIND       PRES   REMARKS
BLAIR          RAIN      50  49  95 NW25G32   29.73F
COLUMBUS *     CLOUDY    48  37  66 N23G31    29.84R
FREMONT        RAIN      51  49  91 NW21G29   29.77S
TEKAMAH        RAIN      52  50  93 NW20      29.76R FOG
$$

NEZ050>053-065>068-078-088>093-191800-
SOUTHEAST NEBRASKA

CITY           SKY/WX    TMP DP  RH WIND       PRES   REMARKS
LINCOLN        LGT RAIN  52  48  86 N20G30    29.78S FOG
OMAHA EPPLEY   LGT RAIN  53  50  89 N17G24    29.74R
FALLS CITY     CLOUDY    57  52  83 NW22G31   29.70S
PLATTSMOUTH    CLOUDY    52  50  94 NW21G31   29.72S
$$

NEZ044-045-051>053-067-191800-
OMAHA AREA

CITY           SKY/WX    TMP DP  RH WIND       PRES   REMARKS
OMAHA EPPLEY   LGT RAIN  53  50  89 N17G24    29.74R
BLAIR          RAIN      50  49  95 NW25G32   29.73F
FREMONT        RAIN      51  49  91 NW21G29   29.77S
PLATTSMOUTH    CLOUDY    52  50  94 NW21G31   29.72S
$$


USA.gov is the U.S. government's official web portal to all federal, state and local government web resources and services.